Hourly Data Report for July 12, 2021

SALLUIT
QUEBEC
Current Station Operator: ECCC - MSC

62°10'46.005" N
75°40'13.006" W
228.00 m
7117800
71641
MFX

Download Data

Hourly Data (July 2021)
Hourly Data Report for July 12, 2021
TIME
LST
Temp Definition
°C
Dew Point Definition
°C
Rel Hum Definition
%
Precip. Amount Definition
mm

Wind Dir Definition
10's deg

Wind Spd Definition
km/h
Visibility Definition
km
Stn Press Definition
kPa
Hmdx Definition


Wind Chill Definition


Weather Definition


00:00 6.7 3.3 79 0.0 19 34   98.68     LegendNANA
01:00 6.5 3.7 82 0.0 22 56   98.60     LegendNANA
02:00 6.0 3.5 84 0.2 22 47   98.59     LegendNANA
03:00 5.8 3.4 85 1.0 22 78   98.47     LegendNANA
04:00 6.5 3.2 79 0.4 20 60   98.53     LegendNANA
05:00 7.7 2.4 69 0.0 21 67   98.44     LegendNANA
06:00 7.2 1.9 69 0.0 22 73   98.39     LegendNANA
07:00 7.5 2.5 71 0.0 21 61   98.42     LegendNANA
08:00 9.2 4.0 70 0.0 21 63   98.37     LegendNANA
09:00 10.1 4.6 68 0.0 21 65   98.30     LegendNANA
10:00 11.4 5.4 67 0.0 20 70   98.21     LegendNANA
11:00 13.1 5.4 60 0.0 19 57   98.21     LegendNANA
12:00 14.3 5.6 56 0.0 20 67   98.11     LegendNANA
13:00 14.9 5.7 54 0.0 20 75   98.00     LegendNANA
14:00 15.7 4.9 49 0.0 19 70   97.97     LegendNANA
15:00 16.5 4.8 46 0.0 20 79   97.86     LegendNANA
16:00 15.8 3.7 45 0.0 20 78   97.78     LegendNANA
17:00 15.4 4.0 46 0.0 19 72   97.78     LegendNANA
18:00 15.2 3.7 46 0.0 19 71   97.69     LegendNANA
19:00 15.0 5.5 53 0.0 19 79   97.55     LegendNANA
20:00 14.0 6.3 60 0.0 19 80   97.54     LegendNANA
21:00 14.0 6.2 59 0.0 20 77   97.44     LegendNANA
22:00 13.8 6.2 60 0.0 20 85   97.34     LegendNANA
23:00 13.5 7.4 66 0.0 19 80   97.24     LegendNANA

Notes on Data Quality.

Legend

  • E = Estimated
  • M = Missing
  • NA = Not Available*
  • [empty] = Indicates an unobserved value
Date modified: